Regional Weather Roundup
Issued by NWS

Home | Current Version | Previous Version | Graphics & Text | Print | Product List | Glossary On
Versions: 1 2 3 4 5 6 7 8 9 10 11 12 13 14 15 16 17 18 19 20 21 22 23 24 25 26 27 28 29 30 31 32 33 34 35 36 37 38 39 40 41 42 43 44 45 46 47 48 49 50
117
ASUS45 KBOU 212110
RWRCO

WEATHER ROUNDUP FOR COLORADO
NATIONAL WEATHER SERVICE PUEBLO CO
300 PM MDT SAT APR 21 2018

NOTE: "FAIR" INDICATES FEW OR NO CLOUDS BELOW 12000 FEET WITH NO
SIGNIFICANT WEATHER AND/OR OBSTRUCTIONS TO VISIBILITY.

COZ001>005-013-030-031-212200-
...NORTHWEST COLORADO...

CITY           SKY/WX    TMP DP  RH WIND       PRES   REMARKS
CRAIG          CLOUDY    50  37  61 SW8       30.19S
HAYDEN         CLOUDY    44  34  67 S3        30.21S
MEEKER         MOSUNNY   47  36  65 SE7       30.20F
RABBIT EARS PA NOT AVBL
STEAMBOAT SPGS CLOUDY    38  33  82 CALM      30.21S
WALDEN         CLOUDY    39  30  70 N12       30.18F
$$

COZ006>008-011-212200-
...WEST CENTRAL VALLEYS...

CITY           SKY/WX    TMP DP  RH WIND       PRES   REMARKS
GRAND JUNCTION MOSUNNY   60  35  39 S8        30.15F
MONTROSE       CLOUDY    53  34  48 N5        30.21S
EAGLE          CLOUDY    46  34  62 N6        30.22S
RIFLE          CLOUDY    50  39  66 VRB5      30.20S
DELTA          NOT AVBL
NUCLA          FAIR      61  28  29 N9G18     30.20S
$$

COZ017>023-064>068-212200-
...SOUTHWEST COLORADO...

CITY           SKY/WX    TMP DP  RH WIND       PRES   REMARKS
DURANGO        SUNNY     61  26  26 SW10G21   30.07F
CORTEZ         SUNNY     63  29  27 NW26G33   30.11F
PAGOSA SPRINGS CLOUDY    56  21  26 CALM      30.10S
TELLURIDE      PTSUNNY   43  30  59 N7        30.25R
WOLF CREEK PAS PTSUNNY   32  19  59 NW6       30.31R WCI  26
$$

COZ009-010-012-014-032>034-037-058>063-212200-
...CENTRAL COLORADO...

CITY           SKY/WX    TMP DP  RH WIND       PRES   REMARKS
ASPEN          CLOUDY    39  31  72 NE3       30.22R
BUENA VISTA    FAIR      50  26  39 NW22      30.12R
COPPER MTN     NOT AVBL
BERTHOUD PASS  CLOUDY    19   9  63 NW17G36   30.19R WCI   4
COTTONWOOD PAS PTSUNNY   43  32  65 NW5       30.16S
GUNNISON       CLOUDY    45  29  53 W13       30.17S
KREMMLING      CLOUDY    45  34  65 S5        30.19S
LEADVILLE      CLOUDY    31  25  78 NW15G24   30.18R WCI  20
MONARCH PASS   CLOUDY    27  23  86 W22G29    30.33R WCI  12
SALIDA         CLOUDY    50  29  44 NW6       30.19R
SUNLIGHT       FOG      N/A N/A N/A CALM      30.31R VSB<1/4
WILKERSON PASS CLOUDY   N/A N/A N/A NW3       30.21R
$$

COZ069>075-212200-
...SAN LUIS VALLEY/SANGRE DE CRISTO MOUNTAINS...

CITY           SKY/WX    TMP DP  RH WIND       PRES   REMARKS
ALAMOSA        CLOUDY    53  22  29 N12       30.09S
DEL NORTE      FAIR      54  21  27 N14G25    30.11F
LA VETA PASS   SNOW      30  28  93 N7        30.29R VSB 1/4 WCI  23
SAGUACHE       NOT AVBL
$$

COZ035-036-038>040-212200-
...NORTHERN COLORADO FRONT RANGE...

CITY           SKY/WX    TMP DP  RH WIND       PRES   REMARKS
DENVER INTL AP CLOUDY    39  32  76 CALM      30.18F
DMNS CITY PARK NOT AVBL
AURORA         LGT RAIN  36  35  98 CALM      30.19S
FRONT RANGE AP CLOUDY    39  36  87 W3        30.19F
ERIE MUNI ARPT DRIZZLE   38  35  87 S3        30.25S
BOULDER MUN AP DRIZZLE   37  36  93 CALM      30.18S
CENTENNIAL     FLURRIES  36  33  89 NW5       30.18S
BROOMFIELD     FLURRIES  37  34  87 CALM      30.19S
LOVELAND       CLOUDY    43  35  73 E3        30.18S
LONGMONT       DRIZZLE   41  37  83 S5        30.21S
$$

COZ041-046-047-076>085-087-088-212200-
...PIKES PEAK/PALMER DIVIDE AND SOUTHERN FOOTHILLS...

CITY           SKY/WX    TMP DP  RH WIND       PRES   REMARKS
COLO. SPRINGS  CLOUDY    41  31  67 N13       30.16S
A. F. ACADEMY  CLOUDY    40  30  66 N15       30.15S
SCHRIEVER AFB  NOT AVBL
CHEYENNE MTN   NOT AVBL
ELLICOTT         N/A    N/A N/A N/A N13       30.15S
FALCON         PTSUNNY   38  29  70 N13       30.18R
FORT CARSON    NOT AVBL
LIMON          CLOUDY    40  35  83 NW12      30.17R
MONUMENT HILL  LGT SNOW  32  30  93 N9        30.18S WCI  24
CANON CITY     LGT RAIN  45  36  70 SE6       30.16R
WALSENBURG     CLOUDY    43  37  81 NE8       30.15F
TRINIDAD       CLOUDY    50  33  52 NE15G24   30.13S
$$

COZ042>045-048>051-090-091-212200-
...NORTHEAST COLORADO...

CITY           SKY/WX    TMP DP  RH WIND       PRES   REMARKS
GREELEY ARPT   CLOUDY    46  35  65 SE5       30.19S
AKRON          LGT RAIN  37  34  89 W3        30.19S
BURLINGTON     CLOUDY    42  37  82 N9        30.17S
WRAY           CLOUDY    41  37  87 NE3       30.20S
YUMA           NOT AVBL
STERLING       NOT AVBL
HOLYOKE        CLOUDY    43  37  81 CALM      30.21S
FORT MORGAN    CLOUDY    43  35  75 CALM      30.19F
$$

COZ086-089-092>099-212200-
...SOUTHEAST COLORADO...

CITY           SKY/WX    TMP DP  RH WIND       PRES   REMARKS
PUEBLO         CLOUDY    48  35  60 NE16      30.16F
LA JUNTA       CLOUDY    50  38  63 N14G21    30.15S
LAMAR          CLOUDY    48  38  68 NE10      30.13F
SPRINGFIELD      N/A     46  37  71 N15       30.13R
$$





USA.gov is the U.S. government's official web portal to all federal, state and local government web resources and services.